Location: Unspecified
(0.0000°N, 0.0000°E)
Time: 20:41:17
(UTC+00:00)

SR - Pass Details

Date: 25 June 2025
Orbit: 572 x 853 km, 66.7° (Epoch: 13 July)

Event Time Altitude Azimuth Distance (km) Brightness Sun altitude
Rises 01:25:59 0° 349° (N) 2,878 - -59.1°
Reaches altitude 10° 01:28:21 10° 355° (N) 1,941 - -58.7°
Maximum altitude 01:32:31 48° 70° (ENE) 766 - -58.0°
Drops below altitude 10° 01:36:33 10° 145° (SE) 1,877 - -57.3°
Sets 01:38:48 0° 150° (SSE) 2,772 - -57.0°
